Content
SEND FEEDBACK

Daily
Averages
Monthly
Summary
United Kingdom

HUCKNALL TORKARD, ENGLAND


Home > Europe > United Kingdom > England
Elevation: 318 feet     Latitude: 53 01N     Longitude: 001 13W

WEATHER
 
SELECT A DAY
Number of Records: 287,380;   Date Range: 7/1/96 - 8/21/14
 
SHARE

PRINT THIS DATA

[ ← Previous Day ]
WEATHER ALMANAC - OCTOBER 18, 2013
[ Next Day → ]
[ °C ]   °F
Weather ElementAverageHighLow
Temperature53.1 °F57.2 °F (2:50 pm)48.2 °F (4:20 am)
Dewpoint51.8 °F55.4 °F (4:50 pm)48.2 °F (3:50 am)
Humidity95.5 %100 % (3:20 am)88 % (2:50 pm)
Barometer29.92 in30.01 in (2:50 am)29.77 in (11:20 pm)
Wind Speed8.4 mph15 mph (9:50 pm)
Weather ElementAverage
Visibility3.7 mi
Wind DirectionSE (131.3 °)

Weather ElementTotal
Precipitation---
Heating Degree Days12.3 (Base 65)
Growing Degree Days2.7 (Base 50)
Averaged from 47 records on October 18, 2013
WEATHER CONDITIONS BREAKOUT
WIND DIRECTION BREAKOUT
WEATHER BY HOUR - OCTOBER 18, 2013
[ °C ]   °F
Local TimeTemperatureDewpointHumidityBarometerVisibilityWind DirectionWind SpeedGust SpeedPrecipitationEventsConditions
12:50 AM51.8 °F50.0 °F94 %29.98 in6.2 miSouth (170°)4.6 mphScattered Clouds
1:20 AM51.8 °F50.0 °F94 %29.98 in6.2 miSW (220°)3.5 mphScattered Clouds
1:50 AM51.8 °F50.0 °F94 %29.98 in6.2 miSW (220°)5.8 mphScattered Clouds
2:20 AM51.8 °F50.0 °F94 %29.98 in6.2 miSW (230°)5.8 mphPartly Cloudy
2:50 AM51.8 °F50.0 °F94 %30.01 in6.2 miSouth (180°)4.6 mphFogPartly Cloudy
3:20 AM50.0 °F50.0 °F100 %29.98 in6.2 miSW (220°)5.8 mphFog
3:50 AM50.0 °F48.2 °F94 %29.98 in6.2 miSW (220°)4.6 mphFogPatches of Fog
4:20 AM48.2 °F48.2 °F100 %29.98 in2.5 miVariable2.3 mphFogMist
4:50 AM48.2 °F48.2 °F100 %29.98 in0.3 miSSE (150°)4.6 mphFogFog
5:20 AM48.2 °F48.2 °F100 %29.98 in0.6 miEast (100°)4.6 mphFogFog
5:50 AM48.2 °F48.2 °F100 %29.98 in0.6 miVariable2.3 mphFogFog
6:20 AM48.2 °F48.2 °F100 %29.98 in0.4 miEast (90°)4.6 mphFogFog
6:50 AM50.0 °F48.2 °F94 %29.98 in0.5 miSSE (150°)3.5 mphFogFog
7:20 AM50.0 °F50.0 °F100 %29.98 in1.6 miVariable3.5 mphFogMist
7:50 AM50.0 °F50.0 °F100 %29.98 in0.9 miSE (130°)4.6 mphFogMostly Cloudy
8:20 AM50.0 °F50.0 °F100 %29.98 in1.2 miSE (140°)6.9 mphFogMostly Cloudy
8:50 AM50.0 °F50.0 °F100 %29.98 in1.1 miSE (130°)6.9 mphFogMostly Cloudy
9:20 AM50.0 °F50.0 °F100 %29.98 in0.7 miSSE (150°)5.8 mphFogMostly Cloudy
9:50 AM51.8 °F51.8 °F100 %29.98 in0.6 miESE (120°)6.9 mphFogMostly Cloudy
10:20 AM51.8 °F51.8 °F100 %29.98 in0.3 miSE (130°)6.9 mphFogFog
10:50 AM51.8 °F51.8 °F100 %29.98 in0.2 miESE (120°)6.9 mphFogFog
11:20 AM51.8 °F51.8 °F100 %29.98 in0.2 miSE (130°)8.1 mphFogFog
11:50 AM53.6 °F53.6 °F100 %29.98 in0.2 miSE (130°)8.1 mphFogFog
12:20 PM53.6 °F53.6 °F100 %29.95 in1.4 miESE (120°)9.2 mphMostly Cloudy
12:50 PM55.4 °F53.6 °F94 %29.95 in3.1 miSE (140°)9.2 mphMostly Cloudy
1:20 PM55.4 °F53.6 °F94 %29.95 in3.7 miSE (130°)10.4 mphMostly Cloudy
1:50 PM55.4 °F53.6 °F94 %29.92 in5.0 miSE (130°)10.4 mphMostly Cloudy
2:20 PM55.4 °F53.6 °F94 %29.92 in4.3 miSSE (150°)9.2 mphMostly Cloudy
2:50 PM57.2 °F53.6 °F88 %29.92 in4.3 miSE (140°)8.1 mphMostly Cloudy
3:20 PM55.4 °F53.6 °F94 %29.92 in3.7 miSE (130°)9.2 mphMostly Cloudy
3:50 PM55.4 °F53.6 °F94 %29.89 in4.3 miESE (120°)9.2 mphMostly Cloudy
4:20 PM57.2 °F53.6 °F88 %29.89 in4.3 miESE (120°)10.4 mphMostly Cloudy
4:50 PM57.2 °F55.4 °F94 %29.86 in5.0 miESE (120°)10.4 mphMostly Cloudy
5:20 PM55.4 °F53.6 °F94 %29.86 in5.0 miSE (130°)10.4 mphScattered Clouds
5:50 PM57.2 °F53.6 °F88 %29.86 in5.0 miSE (130°)12.7 mphScattered Clouds
6:20 PM57.2 °F53.6 °F88 %29.83 in5.0 miSE (130°)11.5 mphScattered Clouds
6:50 PM55.4 °F53.6 °F94 %29.83 in5.0 miSE (130°)12.7 mphMostly Cloudy
7:20 PM55.4 °F53.6 °F94 %29.83 in5.0 miSE (130°)13.8 mphMostly Cloudy
7:50 PM57.2 °F53.6 °F88 %29.80 in5.0 miSE (130°)12.7 mphMostly Cloudy
8:20 PM55.4 °F53.6 °F94 %29.80 in6.2 miSE (130°)12.7 mphMostly Cloudy
8:50 PM55.4 °F53.6 °F94 %29.80 in6.2 miSE (140°)11.5 mphMostly Cloudy
9:20 PM55.4 °F51.8 °F88 %29.80 in6.2 miSE (140°)12.7 mphMostly Cloudy
9:50 PM55.4 °F53.6 °F94 %29.80 in6.2 miSE (140°)15.0 mphMostly Cloudy
10:20 PM55.4 °F53.6 °F94 %29.80 in6.2 miSSE (150°)15.0 mphRainLight Rain
10:50 PM55.4 °F53.6 °F94 %29.80 in6.2 miVariable12.7 mphRainLight Rain
11:20 PM55.4 °F53.6 °F94 %29.77 in6.2 miSE (130°)11.5 mphRainLight Rain
11:50 PM53.6 °F53.6 °F100 %29.77 in6.2 miSE (130°)11.5 mphRainLight Rain
Hourly data recorded from EGNX, located miles away from Hucknall Torkard, England







STORIES FROM OUR PARTNERS